This demonstration page uses our WeatherBlox Daily Observations layout. Learn more.

Left ArrowRight Arrow

Hourly Observations for May 19, 2020

Temp ( °F °C ) Dew Point ( °F °C ) Humidity (%) Winds ( mph kmh ) Pressure ( in mb ) Visibility ( mi km ) Precip ( " mm )
12:23 am 00:23 Cloudy with Haze 61 16 N/A N/A Calm 29.76 1008 5 8 0.00 0.00
12:53 am 00:53 Cloudy with Mist and Fog 60 15.6 60 15.6 100 100 Calm 29.77 1008 6 10 0.00 0.00
1:13 am 01:13 Cloudy with Mist and Fog 60 15.6 60 15.6 100 100 Calm 29.77 1008 6 10 0.00 0.00
1:24 am 01:24 Cloudy 61 16.1 61 16.1 100 100 Calm 29.76 1008 7 11 0.00 0.00
1:53 am 01:53 Cloudy with Light Rain 61 16.1 61 16.1 100 100 Calm 29.77 1008 3 5 0.00 0.00
1:57 am 01:57 Cloudy with Light Rain 61 16.1 61 16.1 100 100 Calm 29.76 1008 2 3 0.01 0.25
2:02 am 02:02 Cloudy with Light Rain 61 16.1 61 16.1 100 100 Calm 29.76 1008 2 3 0.02 0.51
2:11 am 02:11 Cloudy with Light Rain 61 16.1 61 16.1 100 100 Calm 29.76 1008 2 3 0.02 0.51
2:19 am 02:19 Cloudy with Light Rain 61 16.1 61 16.1 100 100 Calm 29.76 1008 3 5 0.03 0.76
2:37 am 02:37 Cloudy with Heavy Rain 61 16.1 61 16.1 100 100 ENE 13 20 29.71 1006 2 3 0.10 2.54
2:43 am 02:43 Cloudy with Rain 62 16.7 61 16.1 96 96 E 15 24 29.71 1006 3 5 0.11 2.79
2:53 am 02:53 Cloudy with Light Rain 63 17.2 63 17.2 100 100 VRB 3 6 29.73 1007 9 14 0.12 3.05
3:12 am 03:12 Cloudy with Light Rain 63 17.2 63 17.2 100 100 Calm 29.73 1007 8 13 0.01 0.25
3:53 am 03:53 Cloudy with Light Rain 61 16.1 61 16.1 100 100 N 3 6 29.72 1007 5 8 0.05 1.27
4:14 am 04:14 Cloudy with Rain 62 16.7 62 16.7 100 100 Calm 29.72 1007 5 8 0.04 1.02
4:22 am 04:22 Cloudy with Rain 63 17.2 63 17.2 100 100 E 7 11 29.72 1006 5 8 0.05 1.27
4:53 am 04:53 Cloudy with Rain 63 17.2 63 17.2 100 100 E 7 11 29.71 1006 5 8 0.13 3.30
5:53 am 05:53 Cloudy with Heavy Rain 62 16.7 62 16.7 100 100 E 8 13 29.73 1007 3 5 0.21 5.33
6:53 am 06:53 Cloudy with Heavy Rain 63 17 N/A N/A ENE 14 22 29.73 1007 3 4 0.27 6.86
7:14 am 07:14 Cloudy with Heavy Rain 62 16.7 60 15.6 93 93 ENE 15 24 29.73 1007 2 3 0.20 5.08
7:22 am 07:22 Cloudy with Heavy Rain 61 16.1 59 15 93 93 ENE 12 19 29.73 1007 3 4 0.27 6.86
7:34 am 07:34 Cloudy with Heavy Rain 62 16.7 59 15 90 90 VRB 5 7 29.75 1008 3 5 0.34 8.64
7:42 am 07:42 Cloudy with Heavy Rain 62 16.7 60 15.6 93 93 ENE 6 9 29.75 1008 2 3 0.41 10.41
7:53 am 07:53 Cloudy with Heavy Rain 62 16.7 60 15.6 93 93 NNE 10 17 29.74 1007 3 4 0.47 11.94
8:02 am 08:02 Cloudy with Heavy Rain 62 16.7 61 16.1 96 96 NNE 16 26 29.72 1007 3 5 0.04 1.02
8:23 am 08:23 Cloudy with Light Rain 63 17.2 61 16.1 93 93 NE 10 17 29.74 1007 7 11 0.09 2.29
8:53 am 08:53 Cloudy 63 17.2 62 16.7 97 97 E 10 17 29.74 1007 10 16 0.10 2.54
9:11 am 09:11 Cloudy 64 17.8 62 16.7 93 93 E 12 19 29.75 1007 10 16 0.00 0.00
9:24 am 09:24 Cloudy with Light Rain 64 17.8 62 16.7 93 93 E 13 20 29.75 1007 10 16 0.01 0.25
9:53 am 09:53 Cloudy with Rain 63 17.2 62 16.7 97 97 E 12 19 29.78 1008 4 6 0.10 2.54
10:04 am 10:04 Cloudy with Rain 64 17.8 62 16.7 93 93 E 12 19 29.77 1008 4 6 0.03 0.76
10:21 am 10:21 Cloudy with Heavy Rain 63 17.2 62 16.7 97 97 E 13 20 29.77 1008 2 3 0.11 2.79
10:29 am 10:29 Cloudy with Heavy Rain 63 17.2 62 16.7 97 97 E 15 24 29.78 1009 2 2 0.17 4.32
10:34 am 10:34 Cloudy with Rain 63 17.2 62 16.7 97 97 E 15 24 29.78 1009 2 3 0.19 4.83
10:53 am 10:53 Cloudy with Light Rain 63 17.2 62 16.7 97 97 E 13 20 29.79 1009 5 8 0.23 5.84
11:11 am 11:11 Cloudy with Light Rain 64 17.8 62 16.7 93 93 E 14 22 29.79 1009 7 11 0.02 0.51
11:53 am 11:53 Cloudy with Light Rain 63 17.2 61 16.1 93 93 E 13 20 29.82 1010 5 8 0.04 1.02
12:36 pm 12:36 Cloudy with Rain 63 17.2 61 16.1 93 93 E 12 19 29.83 1010 4 6 0.07 1.78
12:53 pm 12:53 Cloudy with Light Rain 64 17.8 61 16.1 90 90 E 16 26 29.83 1010 9 14 0.08 2.03
1:53 pm 13:53 Cloudy with Light Rain 63 17.2 61 16.1 93 93 E 8 13 29.85 1011 5 8 0.03 0.76
2:01 pm 14:01 Cloudy with Light Rain 63 17.2 61 16.1 93 93 E 12 19 29.84 1011 7 11 0.00 0.00
2:12 pm 14:12 Cloudy with Light Rain 63 17.2 60 15.6 90 90 E 14 22 29.84 1011 6 10 0.01 0.25
2:44 pm 14:44 Cloudy with Light Rain 63 17.2 60 15.6 90 90 E 13 20 29.85 1011 10 16 0.03 0.76
2:53 pm 14:53 Cloudy with Light Rain 63 17.2 60 15.6 90 90 E 18 30 29.85 1011 10 16 0.03 0.76
3:16 pm 15:16 Cloudy with Light Rain 62 16.7 60 15.6 93 93 E 14 22 29.86 1011 10 16 0.00 0.00
3:53 pm 15:53 Cloudy with Rain 61 16.1 59 15 93 93 E 14 22 29.87 1012 3 4 0.07 1.78
4:00 pm 16:00 Cloudy with Light Rain 61 16.1 58 14.4 90 90 E 17 28 29.87 1012 4 6 0.01 0.25
4:07 pm 16:07 Cloudy with Light Rain 61 16.1 58 14.4 90 90 E 16 26 29.87 1012 9 14 0.01 0.25
4:14 pm 16:14 Cloudy with Light Rain 61 16.1 58 14.4 90 90 E 17 28 29.86 1011 10 16 0.01 0.25
4:53 pm 16:53 Cloudy with Light Rain 61 16.1 58 14.4 90 90 E 14 22 29.87 1011 10 16 0.02 0.51
5:37 pm 17:37 Cloudy with Light Rain 60 15.6 58 14.4 93 93 E 15 24 29.89 1012 8 13 0.02 0.51
5:46 pm 17:46 Cloudy with Light Rain 60 15.6 57 13.9 90 90 E 16 26 29.89 1012 10 16 0.03 0.76
5:53 pm 17:53 Cloudy with Light Rain 59 15 56 13.3 90 90 E 15 24 29.89 1012 10 16 0.03 0.76
6:15 pm 18:15 Cloudy with Light Rain 59 15 56 13.3 90 90 E 9 15 29.90 1012 10 16 0.00 0.00
6:53 pm 18:53 Cloudy with Light Rain 59 15 56 13.3 90 90 E 10 17 29.90 1013 10 16 0.01 0.25
7:53 pm 19:53 Cloudy 58 14.4 56 13.3 93 93 E 9 15 29.92 1013 10 16 0.00 0.00
8:42 pm 20:42 Cloudy 58 14.4 55 12.8 90 90 E 12 19 29.95 1014 10 16 0.00 0.00
8:53 pm 20:53 Cloudy 58 14.4 55 12.8 90 90 E 10 17 29.95 1014 10 16 0.00 0.00
9:24 pm 21:24 Cloudy 58 14.4 55 12.8 90 90 E 12 19 29.96 1015 10 16 0.00 0.00
9:53 pm 21:53 Cloudy with Light Rain 58 14.4 56 13.3 93 93 E 12 19 29.96 1015 10 16 0.00 0.00
10:53 pm 22:53 Cloudy with Light Rain 57 13.9 55 12.8 93 93 E 13 20 29.98 1015 10 16 0.00 0.00
11:53 pm 23:53 Cloudy 57 13.9 54 12.2 90 90 E 12 19 29.99 1016 10 16 0.01 0.25

Powered by AerisWeather